Location: ČR
(50.0000°N, 15.0000°E)
Time: 21:18:27
(UTC+00:00)

Vanguard 3 - Pass Details

Date: 27 October 2021
Orbit: 508 x 3260 km, 33.4° (Epoch: 04 December)

Event Time Altitude Azimuth Distance (km) Brightness Sun altitude
Rises 18:37:36 0° 251° (WSW) 3,809 11.4 -28.1°
Reaches altitude 10° 18:40:31 10° 236° (SW) 3,195 10.7 -28.6°
Maximum altitude 18:46:37 23° 188° (S) 3,013 9.9 -29.5°
Enters shadow 18:49:55 20° 166° (SSE) 3,523 10.1 -30.0°
Drops below altitude 10° 18:55:27 10° 144° (SE) 4,814 - -30.9°
Sets 19:01:18 0° 133° (SE) 6,324 - -31.8°
